Weather History for Denison, IA

Change the Weather History Date:

Tuesday, February 5, 2013

  Actual Average Record
Temperature  
Mean Temperature 35 °F -  
Max Temperature 46 °F 32 °F 59 °F (2005)
Min Temperature 24 °F 17 °F -11 °F (2014)
Degree Days  
Heating Degree Days 30    
Moisture  
Dew Point 25 °F    
Average Humidity 77    
Maximum Humidity 100    
Minimum Humidity 46    
Precipitation  
Precipitation 0.00 in - - ()
Sea Level Pressure  
Sea Level Pressure 29.92 in    
Wind  
Wind Speed 10 mph (West)    
Max Wind Speed 22 mph    
Max Gust Speed 30 mph    
Visibility 8 miles    
Events      
Averages and records for this station are not official NWS values.
T = Trace of Precipitation, MM = Missing Value Source: NWS Daily Summary

Daily Weather History Graph

Daily Weather History Graph

Search for Another Location

Airport:

Trip Planner

Search our weather history database for the weather conditions in past years. The results will help you decide how hot, cold, wet, or windy it might be!

Date:

Astronomy

Feb. 05, 2013 Rise Set
Actual Time 7:29 AM CST 5:42 PM CST
Civil Twilight 7:00 AM CST 6:11 PM CST
Nautical Twilight 6:27 AM CST 6:44 PM CST
Astronomical Twilight 5:54 AM CST 7:17 PM CST
Moon 3:14 AM CST (2/5) 12:58 PM CST (2/5)
Length of Visible Light 11h 10m
Length of Day
10h 12m
Waning Crescent, 26% of the Moon is Illuminated
Feb 5
Waning Crescent
Feb 10
New
Feb 17
First Quarter
Feb 25
Full
Mar 4
Last Quarter

Hourly Weather History & Observations

Time (CST) Temp. Windchill Dew Point Humidity Pressure Visibility Wind Dir Wind Speed Gust Speed Precip Events Conditions
12:15 AM 24.8 °F 16.1 °F 21.2 °F 86% 29.84 in 8.0 mi SW 8.1 mph 13.8 mph N/A   Overcast
12:35 AM 24.8 °F 13.4 °F 21.2 °F 86% 29.85 in 7.0 mi SW 12.7 mph 18.4 mph N/A   Overcast
12:55 AM 24.8 °F 15.3 °F 21.2 °F 86% 29.84 in 6.0 mi SW 9.2 mph 15.0 mph N/A   Overcast
1:15 AM 24.8 °F 14.0 °F 23.0 °F 93% 29.84 in 6.0 mi SSW 11.5 mph - N/A   Overcast
1:35 AM 24.8 °F 16.9 °F 23.0 °F 93% 29.83 in 6.0 mi SSW 6.9 mph 13.8 mph N/A   Overcast
1:55 AM 24.8 °F 16.1 °F 23.0 °F 93% 29.82 in 6.0 mi SSW 8.1 mph - N/A   Overcast
2:15 AM 24.8 °F 15.3 °F 23.0 °F 93% 29.82 in 6.0 mi SSW 9.2 mph - N/A   Overcast
2:35 AM 24.8 °F 16.1 °F 23.0 °F 93% 29.82 in 6.0 mi SSW 8.1 mph 16.1 mph N/A   Overcast
2:55 AM 24.8 °F 16.1 °F 23.0 °F 93% 29.81 in 5.0 mi SSW 8.1 mph - N/A   Overcast
3:15 AM 24.8 °F 16.9 °F 23.0 °F 93% 29.80 in 5.0 mi Variable 6.9 mph 12.7 mph N/A   Overcast
3:35 AM 24.8 °F 15.3 °F 23.0 °F 93% 29.79 in 5.0 mi SSW 9.2 mph - N/A   Overcast
3:55 AM 24.8 °F 16.1 °F 23.0 °F 93% 29.79 in 5.0 mi SSW 8.1 mph - N/A   Mostly Cloudy
4:15 AM 24.8 °F 16.1 °F 23.0 °F 93% 29.78 in 5.0 mi SSW 8.1 mph - N/A   Partly Cloudy
4:35 AM 24.8 °F 16.9 °F 23.0 °F 93% 29.79 in 5.0 mi SSW 6.9 mph - N/A   Clear
4:55 AM 24.8 °F 16.9 °F 23.0 °F 93% 29.80 in 5.0 mi SW 6.9 mph - N/A   Clear
5:15 AM 24.8 °F 16.1 °F 23.0 °F 93% 29.79 in 5.0 mi SSW 8.1 mph - N/A   Clear
5:35 AM 24.8 °F 15.3 °F 23.0 °F 93% 29.79 in 6.0 mi SSW 9.2 mph - N/A   Clear
5:55 AM 24.8 °F 16.9 °F 24.8 °F 100% 29.79 in 6.0 mi SW 6.9 mph - N/A   Scattered Clouds
6:15 AM 26.6 °F 18.2 °F 24.8 °F 93% 29.80 in 6.0 mi SW 8.1 mph - N/A   Overcast
6:35 AM 26.6 °F 19.1 °F 24.8 °F 93% 29.79 in 6.0 mi SW 6.9 mph - N/A   Mostly Cloudy
6:55 AM 26.6 °F 20.0 °F 24.8 °F 93% 29.80 in 7.0 mi SSW 5.8 mph - N/A   Partly Cloudy
7:15 AM 24.8 °F 16.9 °F 23.0 °F 93% 29.81 in 7.0 mi SW 6.9 mph - N/A   Clear
7:35 AM 26.6 °F 20.0 °F 24.8 °F 93% 29.81 in 6.0 mi SW 5.8 mph - N/A   Clear
7:55 AM 26.6 °F 20.0 °F 24.8 °F 93% 29.82 in 6.0 mi SW 5.8 mph - N/A   Clear
8:15 AM 26.6 °F 21.2 °F 24.8 °F 93% 29.83 in 6.0 mi SW 4.6 mph - N/A   Clear
8:35 AM 28.4 °F 21.2 °F 26.6 °F 93% 29.84 in 7.0 mi WSW 6.9 mph - N/A   Clear
8:55 AM 30.2 °F 23.4 °F 26.6 °F 86% 29.85 in 9.0 mi WSW 6.9 mph - N/A   Clear
9:15 AM 35.6 °F 28.6 °F 30.2 °F 81% 29.86 in 10.0 mi West 9.2 mph - N/A   Clear
9:35 AM 37.4 °F 28.9 °F 30.2 °F 75% 29.87 in 10.0 mi WNW 13.8 mph 20.7 mph N/A   Clear
9:55 AM 39.2 °F 30.5 °F 30.2 °F 70% 29.88 in 10.0 mi NW 16.1 mph - N/A   Clear
10:15 AM 41.0 °F 31.9 °F 30.2 °F 65% 29.88 in 10.0 mi NW 19.6 mph - N/A   Clear
10:35 AM 41.0 °F 31.6 °F 30.2 °F 65% 29.90 in 10.0 mi NW 20.7 mph 26.5 mph N/A   Clear
10:55 AM 42.8 °F 34.5 °F 30.2 °F 61% 29.91 in 10.0 mi NW 18.4 mph 26.5 mph N/A   Clear
11:15 AM 42.8 °F 34.3 °F 30.2 °F 61% 29.92 in 10.0 mi NW 19.6 mph - N/A   Clear
11:35 AM 42.8 °F 34.5 °F 30.2 °F 61% 29.93 in 10.0 mi NNW 18.4 mph 29.9 mph N/A   Clear
11:55 AM 44.6 °F 36.9 °F 30.2 °F 57% 29.94 in 10.0 mi NW 18.4 mph 24.2 mph N/A   Clear
12:15 PM 44.6 °F 37.8 °F 30.2 °F 57% 29.94 in 10.0 mi NW 15.0 mph 25.3 mph N/A   Clear
12:35 PM 44.6 °F 36.1 °F 28.4 °F 53% 29.94 in - NW 21.9 mph - N/A   Clear
12:55 PM 44.6 °F 36.6 °F 26.6 °F 49% 29.94 in 10.0 mi NW 19.6 mph - N/A   Clear
1:15 PM 46.4 °F 39.0 °F 26.6 °F 46% 29.94 in 10.0 mi NNW 19.6 mph 27.6 mph N/A   Clear
1:35 PM 44.6 °F 36.6 °F 26.6 °F 49% 29.95 in 10.0 mi NNW 19.6 mph 26.5 mph N/A   Clear
1:55 PM 44.6 °F 36.6 °F 26.6 °F 49% 29.95 in 10.0 mi NNW 19.6 mph 28.8 mph N/A   Partly Cloudy
2:15 PM 44.6 °F 36.9 °F 26.6 °F 49% 29.96 in 10.0 mi NNW 18.4 mph 27.6 mph N/A   Clear
2:35 PM 44.6 °F 37.2 °F 26.6 °F 49% 29.96 in 10.0 mi NNW 17.3 mph 26.5 mph N/A   Scattered Clouds
2:55 PM 44.6 °F 36.6 °F 26.6 °F 49% 29.96 in 10.0 mi NW 19.6 mph 25.3 mph N/A   Partly Cloudy
3:15 PM 44.6 °F 37.4 °F 24.8 °F 46% 29.97 in 10.0 mi NW 16.1 mph 25.3 mph N/A   Clear
3:35 PM 44.6 °F 37.4 °F 24.8 °F 46% 29.98 in 10.0 mi NNW 16.1 mph 23.0 mph N/A   Partly Cloudy
3:55 PM 44.6 °F 37.8 °F 24.8 °F 46% 29.98 in 10.0 mi NNW 15.0 mph - N/A   Mostly Cloudy
4:15 PM 44.6 °F 37.8 °F 24.8 °F 46% 29.98 in 10.0 mi NNW 15.0 mph - N/A   Partly Cloudy
4:35 PM 42.8 °F 36.6 °F 24.8 °F 49% 29.98 in 10.0 mi NNW 11.5 mph 17.3 mph N/A   Clear
4:55 PM 42.8 °F 37.0 °F 24.8 °F 49% 29.99 in 10.0 mi NW 10.4 mph 17.3 mph N/A   Clear
5:15 PM 41.0 °F 36.4 °F 24.8 °F 53% 29.99 in 10.0 mi NNW 6.9 mph - N/A   Clear
5:35 PM 37.4 °F 31.4 °F 24.8 °F 60% 30.00 in 10.0 mi NNW 8.1 mph - N/A   Clear
5:55 PM 37.4 °F 31.4 °F 26.6 °F 65% 30.01 in 10.0 mi NNW 8.1 mph - N/A   Clear
6:15 PM 35.6 °F 30.7 °F 26.6 °F 70% 30.01 in 10.0 mi NNW 5.8 mph - N/A   Scattered Clouds
6:35 PM 35.6 °F - 26.6 °F 70% 30.02 in 10.0 mi Calm Calm - N/A   Scattered Clouds
6:55 PM 32.0 °F 26.4 °F 24.8 °F 75% 30.03 in 10.0 mi NNW 5.8 mph - N/A   Scattered Clouds
7:15 PM 33.8 °F 27.0 °F 26.6 °F 75% 30.04 in 10.0 mi NNE 8.1 mph - N/A   Clear
7:35 PM 33.8 °F 27.0 °F 26.6 °F 75% 30.05 in 10.0 mi North 8.1 mph - N/A   Clear
7:55 PM 32.0 °F 25.6 °F 26.6 °F 80% 30.05 in 10.0 mi NNE 6.9 mph - N/A   Clear
8:15 PM 30.2 °F 26.7 °F 26.6 °F 86% 30.06 in 10.0 mi NE 3.5 mph - N/A   Clear
8:35 PM 30.2 °F - 26.6 °F 86% 30.06 in 10.0 mi Calm Calm - N/A   Clear
8:55 PM 30.2 °F 26.7 °F 26.6 °F 86% 30.06 in 10.0 mi East 3.5 mph - N/A   Clear
9:15 PM 28.4 °F - 24.8 °F 86% 30.06 in 10.0 mi Calm Calm - N/A   Clear
9:35 PM 26.6 °F 21.2 °F 24.8 °F 93% 30.06 in 10.0 mi East 4.6 mph - N/A   Clear
9:55 PM 26.6 °F - 24.8 °F 93% 30.07 in 10.0 mi Calm Calm - N/A   Clear
10:15 PM 26.6 °F 19.1 °F 23.0 °F 86% 30.06 in 10.0 mi East 6.9 mph - N/A   Clear
10:35 PM 26.6 °F 22.6 °F 23.0 °F 86% 30.07 in 10.0 mi SE 3.5 mph - N/A   Clear
10:55 PM 24.8 °F - 23.0 °F 93% 30.08 in 10.0 mi Calm Calm - N/A   Clear
11:15 PM 24.8 °F - 23.0 °F 93% 30.07 in 10.0 mi Calm Calm - N/A   Clear
11:35 PM 24.8 °F - 23.0 °F 93% 30.07 in 10.0 mi Calm Calm - N/A   Clear
11:55 PM 24.8 °F 19.1 °F 23.0 °F 93% 30.06 in 10.0 mi East 4.6 mph - N/A   Clear